This is the latest recevied weather packets stored in our database for station/object WP4PW. If no packets are shown the sender has not sent any weather packets the latest 10 day(s).
| Time | Temp. | Humidity | Pressure | Rain* | Wind** | Luminosity | Snow |
|---|---|---|---|---|---|---|---|
| 1778255823 | 28.89° C | 73% | 1020.2 hPa | 0 mm | - | 815 W/m² | - |
| 1778255519 | 29.44° C | 76% | 1020.2 hPa | 0 mm | - | 811 W/m² | - |
| 1778255217 | 29.44° C | 74% | 1020 hPa | 0 mm | - | 814 W/m² | - |
| 1778254913 | 29.44° C | 77% | 1020.3 hPa | 0 mm | - | 810 W/m² | - |
| 1778254610 | 28.89° C | 76% | 1020.3 hPa | 0 mm | - | 808 W/m² | - |
| 1778254307 | 29.44° C | 77% | 1020.4 hPa | 0 mm | - | 805 W/m² | - |
| 1778254004 | 29.44° C | 75% | 1020.4 hPa | 0 mm | - | 799 W/m² | - |
| 1778253699 | 29.44° C | 74% | 1020.4 hPa | 0 mm | - | 789 W/m² | - |
| 1778253396 | 29.44° C | 75% | 1020.4 hPa | 0 mm | - | 791 W/m² | - |
| 1778253093 | 28.89° C | 76% | 1020.4 hPa | 0 mm | - | 778 W/m² | - |
| 1778252790 | 29.44° C | 74% | 1020.5 hPa | 0 mm | - | 773 W/m² | - |
| 1778252486 | 29.44° C | 74% | 1020.5 hPa | 0 mm | - | 771 W/m² | - |
| 1778252182 | 28.89° C | 77% | 1020.4 hPa | 0 mm | - | 759 W/m² | - |
| 1778251879 | 28.89° C | 76% | 1020.6 hPa | 0 mm | - | 753 W/m² | - |
| 1778251577 | 29.44° C | 75% | 1020.6 hPa | 0 mm | - | 745 W/m² | - |
| 1778251274 | 28.89° C | 76% | 1020.6 hPa | 0 mm | - | 735 W/m² | - |
| 1778250972 | 30° C | 75% | 1020.6 hPa | 0 mm | - | 725 W/m² | - |
| 1778250668 | 29.44° C | 75% | 1020.6 hPa | 0 mm | - | 716 W/m² | - |
| 1778250365 | 29.44° C | 74% | 1020.7 hPa | 0 mm | - | 707 W/m² | - |
| 1778250062 | 29.44° C | 75% | 1020.6 hPa | 0 mm | - | 695 W/m² | - |
| 1778249758 | 28.89° C | 75% | 1020.7 hPa | 0 mm | - | 685 W/m² | - |
| 1778249456 | 29.44° C | 75% | 1020.6 hPa | 0 mm | - | 668 W/m² | - |
| 1778249153 | 28.89° C | 74% | 1020.6 hPa | 0 mm | - | 657 W/m² | - |
| 1778248849 | 28.89° C | 74% | 1020.7 hPa | 0 mm | - | 643 W/m² | - |
| 1778248545 | 29.44° C | 75% | 1020.8 hPa | 0 mm | - | 628 W/m² | - |
* Rain latest hour (hover to see other rain measurements)
** Current wind speed in m/s (hover to see current wind gust speed)